TimeCDT,TemperatureF,Dew PointF,Humidity,Sea Level PressureIn,VisibilityMPH,Wind Direction,Wind SpeedMPH,Gust SpeedMPH,PrecipitationIn,Events,Conditions,WindDirDegrees,DateUTC
12:53 AM,64.9,57.0,75,30.02,10.0,Calm,Calm,-,N/A,,Clear,0,2013-06-18 05:53:00
1:53 AM,62.1,59.0,90,30.04,10.0,Calm,Calm,-,N/A,,Clear,0,2013-06-18 06:53:00
2:53 AM,60.1,59.0,96,30.04,10.0,Calm,Calm,-,N/A,,Clear,0,2013-06-18 07:53:00
3:53 AM,61.0,59.0,93,30.03,10.0,Calm,Calm,-,N/A,,Clear,0,2013-06-18 08:53:00
4:53 AM,61.0,60.1,97,30.05,10.0,WSW,16.1,20.7,N/A,,Mostly Cloudy,250,2013-06-18 09:53:00
5:53 AM,63.0,55.9,78,30.03,10.0,SSE,6.9,-,N/A,,Clear,160,2013-06-18 10:53:00
6:53 AM,62.1,57.0,84,30.02,10.0,Calm,Calm,-,N/A,,Clear,0,2013-06-18 11:53:00
7:53 AM,63.0,59.0,87,30.04,10.0,SSE,3.5,-,N/A,,Scattered Clouds,150,2013-06-18 12:53:00
8:53 AM,64.9,57.9,78,30.04,10.0,SSW,5.8,-,N/A,,Partly Cloudy,200,2013-06-18 13:53:00
9:53 AM,70.0,57.9,65,30.04,10.0,South,3.5,-,N/A,,Clear,190,2013-06-18 14:53:00
10:53 AM,72.0,57.0,59,30.03,10.0,Calm,Calm,-,N/A,,Clear,0,2013-06-18 15:53:00
11:53 AM,75.9,57.9,54,30.01,10.0,Calm,Calm,-,N/A,,Clear,0,2013-06-18 16:53:00
12:53 PM,77.0,57.9,52,30.01,10.0,SSE,10.4,-,N/A,,Clear,150,2013-06-18 17:53:00
1:53 PM,77.0,57.9,52,30.01,10.0,SSE,10.4,-,N/A,,Clear,150,2013-06-18 18:53:00
2:53 PM,79.0,57.9,48,30.00,10.0,SE,10.4,-,N/A,,Clear,130,2013-06-18 19:53:00
3:53 PM,79.0,57.9,48,29.98,10.0,SE,9.2,-,N/A,,Clear,140,2013-06-18 20:53:00
4:53 PM,80.1,59.0,48,29.95,10.0,ESE,12.7,21.9,N/A,,Clear,120,2013-06-18 21:53:00
5:53 PM,80.1,57.0,45,29.94,10.0,SE,8.1,20.7,N/A,,Clear,130,2013-06-18 22:53:00
6:53 PM,79.0,57.0,47,29.93,10.0,SE,12.7,21.9,N/A,,Partly Cloudy,130,2013-06-18 23:53:00
7:53 PM,77.0,57.0,50,29.93,10.0,ESE,10.4,-,N/A,,Clear,120,2013-06-19 00:53:00
8:53 PM,73.0,60.1,64,29.93,10.0,ESE,8.1,-,N/A,,Clear,120,2013-06-19 01:53:00
9:53 PM,70.0,60.1,71,29.94,10.0,ESE,5.8,-,N/A,,Clear,120,2013-06-19 02:53:00
10:53 PM,66.9,61.0,81,29.96,10.0,SE,5.8,-,N/A,,Clear,140,2013-06-19 03:53:00
11:53 PM,64.9,61.0,87,29.96,10.0,SSE,6.9,-,N/A,,Clear,150,2013-06-19 04:53:00